Radiation Dose at Monitoring Post of Fukushima Daini Nuclear Power Station
Date,Time,MP-1(microSv/h),MP-2(microSv/h),MP-3(microSv/h),MP-4(microSv/h),MP-5(microSv/h),MP-6(microSv/h),MP-7(microSv/h),Wind Direction,Wind Velocity(m/s),Rain
2018/03/15,00:00,0.323,0.205,0.328,0.313,0.302,0.165,0.100,southwest,4.3,No
2018/03/15,00:10,0.322,0.204,0.330,0.313,0.302,0.165,0.099,southwest,4.3,No
2018/03/15,00:20,0.323,0.203,0.329,0.313,0.301,0.165,0.099,south,4.4,No
2018/03/15,00:30,0.324,0.203,0.330,0.313,0.303,0.165,0.098,south,3.0,No
2018/03/15,00:40,0.323,0.204,0.330,0.312,0.303,0.165,0.099,south-southwest,2.7,No
2018/03/15,00:50,0.322,0.204,0.328,0.314,0.302,0.166,0.100,south-southwest,2.0,No
2018/03/15,01:00,0.323,0.204,0.328,0.314,0.301,0.166,0.100,south-southwest,3.5,No
2018/03/15,01:10,0.323,0.204,0.330,0.314,0.303,0.166,0.100,south-southwest,4.4,No
2018/03/15,01:20,0.323,0.203,0.329,0.315,0.304,0.165,0.100,southwest,4.9,No
2018/03/15,01:30,0.325,0.204,0.329,0.313,0.302,0.164,0.100,southwest,5.0,No
2018/03/15,01:40,0.323,0.205,0.329,0.312,0.303,0.166,0.100,southwest,5.1,No
2018/03/15,01:50,0.323,0.204,0.330,0.314,0.302,0.166,0.100,southwest,5.6,No
2018/03/15,02:00,0.323,0.205,0.329,0.315,0.302,0.165,0.100,south-southwest,3.5,No
2018/03/15,02:10,0.324,0.204,0.329,0.314,0.302,0.166,0.100,south-southwest,1.8,No
2018/03/15,02:20,0.323,0.204,0.329,0.314,0.301,0.166,0.100,south-southwest,1.7,No
2018/03/15,02:30,0.324,0.203,0.328,0.314,0.303,0.166,0.100,south-southeast,1.1,No
2018/03/15,02:40,0.324,0.204,0.330,0.312,0.303,0.165,0.100,south-southeast,1.3,No
2018/03/15,02:50,0.322,0.204,0.330,0.313,0.302,0.166,0.101,-,CALM,No
2018/03/15,03:00,0.323,0.204,0.329,0.314,0.303,0.166,0.100,south,2.4,No
2018/03/15,03:10,0.324,0.204,0.329,0.314,0.301,0.165,0.100,south-southwest,2.6,No
2018/03/15,03:20,0.323,0.204,0.330,0.314,0.303,0.165,0.100,southwest,1.7,No
2018/03/15,03:30,0.323,0.205,0.329,0.314,0.303,0.166,0.099,southwest,1.3,No
2018/03/15,03:40,0.324,0.204,0.329,0.314,0.302,0.165,0.100,southwest,3.9,No
2018/03/15,03:50,0.323,0.204,0.329,0.312,0.303,0.166,0.100,southwest,6.1,No
2018/03/15,04:00,0.325,0.204,0.330,0.313,0.302,0.166,0.100,southwest,6.8,No
2018/03/15,04:10,0.322,0.204,0.328,0.314,0.302,0.165,0.099,south-southwest,5.3,No
2018/03/15,04:20,0.323,0.203,0.329,0.314,0.302,0.165,0.100,south-southwest,5.9,No
2018/03/15,04:30,0.324,0.204,0.330,0.313,0.302,0.165,0.100,south-southwest,6.6,No
2018/03/15,04:40,0.323,0.204,0.329,0.314,0.300,0.165,0.099,south-southwest,6.0,No
2018/03/15,04:50,0.323,0.203,0.329,0.313,0.301,0.165,0.100,south-southwest,6.0,No
2018/03/15,05:00,0.323,0.204,0.330,0.313,0.301,0.165,0.099,south-southwest,6.4,No
2018/03/15,05:10,0.322,0.205,0.328,0.313,0.301,0.165,0.099,southwest,4.7,No
2018/03/15,05:20,0.323,0.203,0.327,0.313,0.302,0.166,0.099,south-southwest,3.9,No
2018/03/15,05:30,0.323,0.205,0.329,0.313,0.302,0.165,0.100,south-southwest,3.8,No
2018/03/15,05:40,0.323,0.205,0.330,0.314,0.302,0.165,0.099,south-southwest,4.6,No
2018/03/15,05:50,0.321,0.204,0.327,0.314,0.301,0.165,0.100,south-southwest,4.6,No
2018/03/15,06:00,0.323,0.203,0.327,0.314,0.302,0.165,0.098,south-southwest,6.7,No
2018/03/15,06:10,0.323,0.204,0.330,0.315,0.303,0.164,0.099,south-southwest,7.2,No
2018/03/15,06:20,0.323,0.203,0.328,0.313,0.301,0.166,0.100,south-southwest,7.4,No
2018/03/15,06:30,0.323,0.204,0.328,0.313,0.303,0.165,0.100,south-southwest,7.5,No
2018/03/15,06:40,0.323,0.204,0.331,0.315,0.302,0.165,0.100,south-southwest,7.9,No
2018/03/15,06:50,0.322,0.204,0.328,0.314,0.301,0.165,0.099,south-southwest,7.5,No
2018/03/15,07:00,0.323,0.203,0.329,0.313,0.304,0.165,0.099,south-southwest,7.3,No
2018/03/15,07:10,0.326,0.204,0.329,0.314,0.301,0.166,0.099,south-southwest,7.5,No
2018/03/15,07:20,0.323,0.203,0.329,0.313,0.302,0.165,0.099,south-southwest,7.2,No
2018/03/15,07:30,0.324,0.203,0.327,0.312,0.303,0.165,0.100,south-southwest,7.6,No
2018/03/15,07:40,0.323,0.204,0.331,0.313,0.302,0.165,0.099,south-southwest,7.5,No
2018/03/15,07:50,0.322,0.204,0.328,0.311,0.303,0.166,0.100,south-southwest,7.5,No
2018/03/15,08:00,0.323,0.203,0.329,0.313,0.301,0.165,0.099,south-southwest,7.8,No
2018/03/15,08:10,0.323,0.204,0.330,0.312,0.302,0.166,0.100,south-southwest,6.3,No
2018/03/15,08:20,0.323,0.202,0.328,0.312,0.302,0.165,0.099,south-southwest,5.8,No
2018/03/15,08:30,0.323,0.204,0.329,0.314,0.301,0.164,0.100,south,5.6,No
2018/03/15,08:40,0.322,0.204,0.327,0.313,0.303,0.165,0.099,south,5.3,No
2018/03/15,08:50,0.323,0.204,0.329,0.315,0.302,0.164,0.098,south,6.4,No
2018/03/15,09:00,0.322,0.203,0.328,0.309,0.302,0.165,0.100,south,6.9,No
2018/03/15,09:10,0.323,0.203,0.330,0.313,0.300,0.164,0.098,south,7.3,No
2018/03/15,09:20,0.322,0.202,0.326,0.313,0.303,0.164,0.099,south,7.8,No
2018/03/15,09:30,0.323,0.202,0.329,0.310,0.300,0.164,0.100,south,8.3,No
2018/03/15,09:40,0.320,0.205,0.326,0.313,0.302,0.166,0.099,south,7.5,No
2018/03/15,09:50,0.323,0.203,0.329,0.313,0.302,0.165,0.099,south,7.8,No
2018/03/15,10:00,0.321,0.204,0.326,0.311,0.300,0.164,0.100,south,8.1,No
2018/03/15,10:10,0.319,0.203,0.329,0.310,0.303,0.166,0.099,south,8.1,No
2018/03/15,10:20,0.322,0.203,0.329,0.313,0.302,0.164,0.101,south,7.2,No
2018/03/15,10:30,0.322,0.204,0.327,0.313,0.300,0.164,0.100,south,8.6,No
2018/03/15,10:40,0.318,0.206,0.330,0.311,0.299,0.165,0.099,south,8.7,No
2018/03/15,10:50,0.315,0.203,0.325,0.310,0.303,0.165,0.099,south,10.9,No
2018/03/15,11:00,0.319,0.202,0.328,0.315,0.303,0.164,0.099,south,10.3,No
2018/03/15,11:10,0.320,0.204,0.329,0.314,0.300,0.165,0.099,south,9.5,No
2018/03/15,11:20,0.317,0.204,0.327,0.311,0.303,0.164,0.100,south,10.4,No
2018/03/15,11:30,0.314,0.202,0.324,0.311,0.303,0.163,0.100,south,11.4,No
2018/03/15,11:40,0.317,0.204,0.328,0.314,0.300,0.165,0.099,south,12.5,No
2018/03/15,11:50,0.318,0.205,0.328,0.313,0.300,0.165,0.099,south,12.0,No
2018/03/15,12:00,0.316,0.203,0.326,0.311,0.304,0.164,0.099,south,11.7,No
2018/03/15,12:10,0.314,0.205,0.326,0.314,0.302,0.166,0.099,south,11.8,No
2018/03/15,12:20,0.320,0.204,0.331,0.315,0.299,0.164,0.099,south,13.1,No
2018/03/15,12:30,0.319,0.205,0.330,0.311,0.301,0.165,0.099,south,12.8,No
2018/03/15,12:40,0.316,0.205,0.326,0.315,0.303,0.166,0.100,south,12.8,No
2018/03/15,12:50,0.320,0.204,0.329,0.316,0.301,0.165,0.098,south,12.6,No
2018/03/15,13:00,0.317,0.204,0.330,0.312,0.303,0.165,0.099,south,12.8,No
2018/03/15,13:10,0.316,0.203,0.327,0.314,0.304,0.167,0.099,south,11.8,No
2018/03/15,13:20,0.319,0.203,0.327,0.317,0.302,0.165,0.100,south,13.1,No
2018/03/15,13:30,0.317,0.205,0.330,0.310,0.304,0.166,0.099,south,13.4,No
2018/03/15,13:40,0.315,0.203,0.329,0.314,0.304,0.165,0.100,south,13.3,No
2018/03/15,13:50,0.320,0.206,0.328,0.315,0.301,0.166,0.100,south,13.1,No
2018/03/15,14:00,0.316,0.203,0.330,0.314,0.304,0.166,0.100,south,12.0,No
2018/03/15,14:10,0.319,0.207,0.327,0.316,0.303,0.165,0.100,south,12.2,No
2018/03/15,14:20,0.319,0.205,0.326,0.313,0.300,0.165,0.099,south,13.1,No
2018/03/15,14:30,0.316,0.204,0.331,0.314,0.304,0.165,0.100,south,13.4,No
2018/03/15,14:40,0.320,0.205,0.330,0.315,0.303,0.165,0.099,south,14.0,No
2018/03/15,14:50,0.317,0.205,0.326,0.313,0.301,0.166,0.100,south,12.3,No
2018/03/15,15:00,0.314,0.204,0.329,0.314,0.303,0.164,0.099,south,13.7,No
2018/03/15,15:10,0.318,0.206,0.330,0.315,0.304,0.165,0.100,south,14.2,No
2018/03/15,15:20,0.318,0.204,0.328,0.315,0.301,0.166,0.099,south-southwest,14.0,No
2018/03/15,15:30,0.316,0.205,0.330,0.315,0.306,0.165,0.100,south-southwest,13.9,No
2018/03/15,15:40,0.319,0.205,0.329,0.314,0.304,0.167,0.100,south-southwest,11.7,No
2018/03/15,15:50,0.319,0.206,0.331,0.317,0.303,0.166,0.100,south-southwest,11.4,No
2018/03/15,16:00,0.315,0.205,0.329,0.313,0.306,0.164,0.099,south-southwest,10.3,No
2018/03/15,16:10,0.320,0.205,0.329,0.317,0.303,0.165,0.100,south-southwest,10.6,No
2018/03/15,16:20,0.317,0.204,0.330,0.313,0.305,0.165,0.099,south-southwest,10.3,No
2018/03/15,16:30,0.318,0.205,0.329,0.314,0.304,0.165,0.100,south-southwest,9.5,No
2018/03/15,16:40,0.317,0.205,0.331,0.315,0.303,0.165,0.099,south-southwest,6.9,No
2018/03/15,16:50,0.318,0.205,0.328,0.315,0.305,0.165,0.099,south-southwest,7.9,No
2018/03/15,17:00,0.319,0.205,0.330,0.315,0.302,0.166,0.099,south-southwest,7.1,No
2018/03/15,17:10,0.319,0.205,0.328,0.315,0.304,0.165,0.099,southwest,6.1,No
2018/03/15,17:20,0.319,0.205,0.330,0.315,0.301,0.166,0.099,southwest,4.4,No
2018/03/15,17:30,0.319,0.205,0.328,0.314,0.306,0.165,0.099,west-southwest,3.2,No
2018/03/15,17:40,0.320,0.205,0.330,0.314,0.300,0.166,0.100,west,3.0,No
2018/03/15,17:50,0.318,0.205,0.328,0.314,0.307,0.166,0.100,west,5.3,No
2018/03/15,18:00,0.318,0.204,0.331,0.317,0.302,0.165,0.100,west,5.6,No
2018/03/15,18:10,0.320,0.206,0.327,0.315,0.304,0.166,0.100,west,5.2,No
2018/03/15,18:20,0.318,0.204,0.332,0.315,0.302,0.166,0.100,west-northwest,4.9,No
2018/03/15,18:30,0.320,0.205,0.328,0.314,0.305,0.165,0.100,west,5.4,No
2018/03/15,18:40,0.320,0.204,0.329,0.316,0.303,0.165,0.100,west-northwest,6.3,No
2018/03/15,18:50,0.318,0.204,0.328,0.315,0.305,0.165,0.100,west-northwest,4.7,No
2018/03/15,19:00,0.318,0.205,0.330,0.315,0.302,0.165,0.099,northwest,4.3,No
2018/03/15,19:10,0.320,0.205,0.328,0.314,0.305,0.165,0.100,northwest,2.3,No
2018/03/15,19:20,0.319,0.205,0.331,0.316,0.303,0.166,0.099,west-northwest,3.0,No
2018/03/15,19:30,0.321,0.205,0.328,0.316,0.303,0.166,0.100,west,3.7,No
2018/03/15,19:40,0.319,0.205,0.331,0.315,0.303,0.165,0.100,west-northwest,2.9,No
2018/03/15,19:50,0.320,0.204,0.329,0.315,0.306,0.166,0.100,west,5.2,No
2018/03/15,20:00,0.321,0.205,0.332,0.315,0.302,0.166,0.100,west,3.7,No
2018/03/15,20:10,0.322,0.205,0.329,0.316,0.305,0.166,0.100,west-southwest,4.1,No
2018/03/15,20:20,0.319,0.205,0.331,0.316,0.302,0.166,0.100,southwest,2.5,No
2018/03/15,20:30,0.321,0.206,0.328,0.317,0.304,0.166,0.099,south-southwest,3.2,No
2018/03/15,20:40,0.319,0.204,0.329,0.315,0.303,0.166,0.099,south-southwest,4.3,No
2018/03/15,20:50,0.322,0.206,0.329,0.316,0.305,0.166,0.100,southwest,5.7,No
2018/03/15,21:00,0.319,0.204,0.331,0.315,0.303,0.167,0.099,southwest,4.7,No
2018/03/15,21:10,0.320,0.206,0.331,0.315,0.306,0.166,0.100,south-southwest,4.3,No
2018/03/15,21:20,0.318,0.205,0.331,0.317,0.301,0.166,0.101,south-southwest,6.3,No
2018/03/15,21:30,0.318,0.206,0.331,0.316,0.305,0.166,0.101,south-southwest,5.7,No
2018/03/15,21:40,0.320,0.206,0.330,0.317,0.303,0.167,0.100,south-southwest,6.6,No
2018/03/15,21:50,0.319,0.204,0.332,0.314,0.304,0.166,0.099,south-southwest,7.1,No
2018/03/15,22:00,0.321,0.205,0.328,0.318,0.303,0.166,0.100,south-southwest,6.8,No
2018/03/15,22:10,0.317,0.205,0.331,0.315,0.303,0.166,0.099,south-southwest,7.5,No
2018/03/15,22:20,0.320,0.205,0.329,0.316,0.304,0.165,0.100,south,6.4,No
2018/03/15,22:30,0.319,0.206,0.330,0.315,0.305,0.165,0.101,south-southwest,6.0,No
2018/03/15,22:40,0.320,0.204,0.328,0.317,0.303,0.166,0.100,southwest,4.1,No
2018/03/15,22:50,0.319,0.206,0.331,0.314,0.303,0.166,0.100,south-southwest,2.7,No
2018/03/15,23:00,0.318,0.204,0.331,0.314,0.304,0.165,0.100,southwest,1.9,No
2018/03/15,23:10,0.320,0.204,0.331,0.316,0.303,0.167,0.100,south-southwest,3.2,No
2018/03/15,23:20,0.320,0.206,0.331,0.314,0.305,0.165,0.100,south-southwest,3.2,No
2018/03/15,23:30,0.320,0.205,0.330,0.318,0.302,0.166,0.100,south-southwest,3.3,No
2018/03/15,23:40,0.319,0.206,0.331,0.314,0.304,0.166,0.100,south-southwest,3.2,No
2018/03/15,23:50,0.321,0.205,0.330,0.316,0.303,0.166,0.099,southwest,4.1,No
